Location: Gro�sch�nbrunn
(49.5760°N, 11.8868°E)
Time: 23:08:16
(UTC+00:00)

Cosmos 990 Rocket - Pass Details

Date: 18 September 2020
Orbit: 746 x 769 km, 74.0° (Epoch: 30 October)

Event Time Altitude Azimuth Distance (km) Brightness Sun altitude
Rises 17:57:46 0° 198° (SSW) 3,179 7.3 -7.2°
Reaches altitude 10° 18:00:07 10° 198° (SSW) 2,258 6.5 -7.5°
Maximum altitude 18:05:14 81° 111° (ESE) 762 3.9 -8.3°
Drops below altitude 10° 18:10:24 10° 25° (NNE) 2,278 6.3 -9.2°
Sets 18:12:46 0° 25° (NNE) 3,208 7.1 -9.5°
